Weather History for Shaw AFB, SC

Change the Weather History Date:

Tuesday, August 6, 2013

  Actual Average Record
Temperature  
Mean Temperature 73 °F -  
Max Temperature 79 °F 87 °F 98 °F (1999)
Min Temperature 67 °F 68 °F 62 °F (1998)
Cooling Degree Days 8    
Growing Degree Days 23 (Base 50)    
Moisture  
Dew Point 71 °F    
Average Humidity 91    
Maximum Humidity 100    
Minimum Humidity 72    
Precipitation  
Precipitation 0.48 in - - ()
Sea Level Pressure  
Sea Level Pressure 30.03 in    
Wind  
Wind Speed 5 mph (NE)    
Max Wind Speed 12 mph    
Max Gust Speed -    
Visibility 7 miles    
Events Rain    
Averages and records for this station are not official NWS values.
T = Trace of Precipitation, MM = Missing Value Source: NWS Daily Summary

Daily Weather History Graph

Daily Weather History Graph

Search for Another Location

Airport:

Trip Planner

Search our weather history database for the weather conditions in past years. The results will help you decide how hot, cold, wet, or windy it might be!

Date:

Astronomy

Aug. 06, 2013 Rise Set
Actual Time 6:37 AM EDT 8:17 PM EDT
Civil Twilight 6:10 AM EDT 8:44 PM EDT
Nautical Twilight 5:37 AM EDT 9:17 PM EDT
Astronomical Twilight 5:03 AM EDT 9:51 PM EDT
Moon 6:24 AM EDT (8/6) 7:55 PM EDT (8/6)
Length of Visible Light 14h 34m
Length of Day
13h 40m
Waning Crescent, 0% of the Moon is Illuminated
Aug 6
Waning Crescent
Aug 6
New
Aug 14
First Quarter
Aug 20
Full
Aug 28
Last Quarter

Hourly Weather History & Observations

Time (EDT) Temp. Dew Point Humidity Pressure Visibility Wind Dir Wind Speed Gust Speed Precip Events Conditions
12:58 AM 72.0 °F 63.5 °F 75% 30.03 in 10.0 mi SE 4.6 mph - N/A   Mostly Cloudy
1:58 AM 72.0 °F 63.9 °F 76% 30.01 in 10.0 mi South 2.3 mph - N/A   Overcast
2:58 AM 71.2 °F 64.2 °F 78% 30.00 in 10.0 mi SE 2.3 mph - N/A   Overcast
3:58 AM 71.2 °F 64.8 °F 80% 29.98 in 10.0 mi East 2.3 mph - N/A   Overcast
4:58 AM 70.5 °F 65.3 °F 83% 29.98 in 10.0 mi Calm Calm - N/A   Scattered Clouds
5:58 AM 69.8 °F 65.1 °F 85% 29.99 in 10.0 mi Calm Calm - N/A   Scattered Clouds
6:58 AM 67.3 °F 65.1 °F 93% 29.99 in 10.0 mi NNE 4.6 mph - N/A   Clear
7:58 AM 72.0 °F 66.6 °F 83% 30.01 in 10.0 mi Variable 1.2 mph - N/A   Partly Cloudy
8:58 AM 75.2 °F 68.0 °F 78% 30.03 in 10.0 mi SE 5.8 mph - N/A   Scattered Clouds
9:58 AM 79.0 °F 69.1 °F 72% 30.03 in 10.0 mi SSE 5.8 mph - N/A   Mostly Cloudy
10:58 AM 79.3 °F 70.2 °F 73% 30.04 in 10.0 mi SE 5.8 mph - N/A   Scattered Clouds
11:25 AM 78.8 °F 69.8 °F 74% 30.04 in 10.0 mi ESE 4.6 mph - N/A Rain Light Rain
11:29 AM 78.8 °F 71.6 °F 78% 30.04 in 10.0 mi ESE 4.6 mph - N/A Rain Light Rain
11:58 AM 78.6 °F 71.8 °F 79% 30.04 in 10.0 mi ENE 3.5 mph - 0.00 in Rain Light Rain
12:28 PM 77.0 °F 73.4 °F 89% 30.05 in 4.0 mi NNE 6.9 mph - N/A Rain Light Rain
12:58 PM 75.4 °F 73.0 °F 92% 30.05 in 4.0 mi NNE 10.4 mph - 0.08 in Rain Light Rain
1:32 PM 73.4 °F 71.6 °F 94% 30.04 in 3.0 mi NE 8.1 mph - N/A Rain Light Rain
1:50 PM - - N/A% 30.04 in 2.2 mi NE 8.1 mph - N/A Rain Rain
1:58 PM 73.6 °F 72.0 °F 95% 30.04 in 2.2 mi NE 11.5 mph - 0.09 in Rain Rain
2:38 PM 73.4 °F 71.6 °F 94% 30.04 in 2.0 mi NNE 10.4 mph - N/A Rain Rain
2:48 PM 73.4 °F 71.6 °F 94% 30.04 in 4.0 mi NNE 11.5 mph - N/A Rain Heavy Rain
2:58 PM 73.0 °F 71.6 °F 95% 30.04 in 2.0 mi NE 11.5 mph - 0.16 in Rain Rain
3:23 PM 73.4 °F 71.6 °F 94% 30.03 in 2.0 mi NE 10.4 mph - N/A Rain Rain
3:38 PM 73.4 °F 71.6 °F 94% 30.03 in 3.0 mi NNE 9.2 mph - N/A Rain Light Rain
3:43 PM 73.4 °F 71.6 °F 94% 30.03 in 2.0 mi NE 9.2 mph - N/A Rain Rain
3:53 PM 73.4 °F 71.6 °F 94% 30.03 in 1.9 mi NNE 9.2 mph - N/A Rain Rain
3:58 PM 73.0 °F 71.2 °F 94% 30.03 in 2.0 mi NE 9.2 mph - 0.12 in Rain Heavy Rain
4:03 PM 73.4 °F 71.6 °F 94% 30.02 in 2.2 mi NE 9.2 mph - N/A Rain Light Rain
4:11 PM 73.4 °F 71.6 °F 94% 30.02 in 2.5 mi NNE 9.2 mph - N/A Rain Light Rain
4:19 PM 73.4 °F 71.6 °F 94% 30.02 in 2.5 mi NNE 8.1 mph - N/A   Light Drizzle
4:32 PM 73.4 °F 71.6 °F 94% 30.03 in 3.0 mi NE 6.9 mph - N/A Rain Light Rain
4:46 PM 73.4 °F 71.6 °F 94% 30.02 in 9.0 mi NNE 6.9 mph - N/A Rain Light Rain
4:58 PM 73.4 °F 71.8 °F 95% 30.02 in 4.0 mi NNE 6.9 mph - 0.03 in Rain Light Rain
5:23 PM 73.4 °F 71.6 °F 94% 30.03 in 5.0 mi North 4.6 mph - N/A   Light Drizzle
5:28 PM 73.4 °F 71.6 °F 94% 30.03 in 10.0 mi North 3.5 mph - N/A   Light Drizzle
5:33 PM 73.4 °F 71.6 °F 94% 30.03 in 10.0 mi NNE 3.5 mph - N/A   Mostly Cloudy
5:50 PM 73.4 °F 71.6 °F 94% 30.03 in 10.0 mi NNE 2.3 mph - N/A   Light Drizzle
5:58 PM 73.8 °F 71.2 °F 92% 30.03 in 10.0 mi Calm Calm - 0.00 in   Light Drizzle
6:07 PM 73.4 °F 71.6 °F 94% 30.03 in 10.0 mi NE 1.2 mph - N/A   Overcast
6:42 PM 75.2 °F 71.6 °F 89% 30.02 in 10.0 mi ENE 4.6 mph - N/A   Mostly Cloudy
6:58 PM 74.1 °F 72.3 °F 94% 30.03 in 10.0 mi ENE 4.6 mph - 0.00 in   Overcast
7:28 PM 73.4 °F 73.4 °F 100% 30.02 in 9.0 mi ENE 2.3 mph - N/A   Overcast
7:32 PM 75.2 °F 73.4 °F 94% 30.02 in 10.0 mi ENE 2.3 mph - N/A   Overcast
7:37 PM 75.2 °F 73.4 °F 94% 30.02 in 9.0 mi ENE 3.5 mph - N/A   Overcast
7:58 PM 74.3 °F 73.0 °F 96% 30.03 in 7.0 mi NE 5.8 mph - N/A   Overcast
8:13 PM 73.4 °F 73.4 °F 100% 30.03 in 6.0 mi ENE 5.8 mph - N/A   Overcast
8:38 PM 73.4 °F 73.4 °F 100% 30.03 in 8.0 mi NE 4.6 mph - N/A   Overcast
8:53 PM 73.4 °F 73.4 °F 100% 30.03 in 7.0 mi NE 3.5 mph - N/A   Overcast
8:58 PM 73.8 °F 72.5 °F 96% 30.03 in 7.0 mi NE 3.5 mph - N/A   Mostly Cloudy
9:43 PM 73.4 °F 71.6 °F 94% 30.03 in 7.0 mi ENE 3.5 mph - N/A   Scattered Clouds
9:53 PM 73.4 °F 71.6 °F 94% 30.03 in 6.0 mi ENE 2.3 mph - N/A   Mostly Cloudy
9:58 PM 73.2 °F 72.3 °F 97% 30.04 in 6.0 mi ENE 2.3 mph - N/A   Mostly Cloudy
10:18 PM 73.4 °F 71.6 °F 94% 30.04 in 6.0 mi ENE 3.5 mph - N/A   Mostly Cloudy
10:38 PM 73.4 °F 71.6 °F 94% 30.05 in 5.0 mi NE 2.3 mph - N/A   Mostly Cloudy
10:39 PM 73.4 °F 71.6 °F 94% 30.05 in 5.0 mi ENE 2.3 mph - N/A   Overcast
10:49 PM 73.4 °F 73.4 °F 100% 30.05 in 5.0 mi East 2.3 mph - N/A   Overcast
10:54 PM 73.4 °F 73.4 °F 100% 30.04 in 5.0 mi East 2.3 mph - N/A   Overcast
10:58 PM 73.2 °F 72.7 °F 98% 30.04 in 6.0 mi East 3.5 mph - N/A   Overcast
11:58 PM 72.7 °F 71.8 °F 97% 30.05 in 5.0 mi NE 2.3 mph - N/A   Mostly Cloudy